ラ・サグラ彗星

324P/La Sagra (2015)

English version
Home page
Updated on November 13, 2016

---------------------------------------------------------------------

・ プロフィール

符号 324P/2015 K3
検出日 2015年5月22日、3月21日
検出光度 21.6等、22.8等
検出者 J. V. Scotti (Spacewatch), M. Micheli, H. H. Hsieh, S. S. Sheppard (Magellan-Baade telescope)

・ 軌道要素

Epoch 2015 Dec. 4.0 TT = JDT 2457360.5
T 2015 Nov. 29.90242 TT                                 MPCW
q   2.6198418            (2000.0)            P               Q
n   0.18093347     Peri.   58.55679     +0.80011566     +0.47592241
a   3.0959227      Node   270.65009     -0.59422627     +0.71199383
e   0.1537767      Incl.   21.41643     +0.08191499     +0.51629704
P   5.45
From 398 observations 2010 Aug. 13-2015 July 17, mean residual 0".5.

・ 光度変化

        H = 17.5  G = 0.15

---------------------------------------------------------------------

軌道要素はM.P.E.C. 2015-Q71に掲載されたものです。
光度グラフはComet for Windowsで作成したものです。

---------------------------------------------------------------------

Copyright(C) Seiichi Yoshida (comet@aerith.net). All rights reserved.